This is the latest recevied weather packets stored in our database for station/object KE6RLG. If no packets are shown the sender has not sent any weather packets the latest 10 day(s).
| Time | Temp. | Humidity | Pressure | Rain* | Wind** | Luminosity | Snow |
|---|---|---|---|---|---|---|---|
| 1777336819 | 17.78° C | 49% | 1015.6 hPa | 0 mm | - | 277 W/m² | - |
| 1777336219 | 17.22° C | 51% | 1015.5 hPa | 0 mm | - | 311 W/m² | - |
| 1777334740 | 17.22° C | 49% | 1015.4 hPa | 0 mm | - | 403 W/m² | - |
| 1777334120 | 17.78° C | 49% | 1015.4 hPa | 0 mm | - | 438 W/m² | - |
| 1777332920 | 17.22° C | 51% | 1015.5 hPa | 0 mm | - | 508 W/m² | - |
| 1777332341 | 17.22° C | 52% | 1015.4 hPa | 0 mm | - | 542 W/m² | - |
| 1777329318 | 17.22° C | 51% | 1015.5 hPa | 0 mm | - | 701 W/m² | - |
| 1777323019 | 17.22° C | 50% | 1016.1 hPa | 0 mm | - | 917 W/m² | - |
| 1777322719 | 17.22° C | 49% | 1016.2 hPa | 0 mm | - | 923 W/m² | - |
| 1777320320 | 17.78° C | 50% | 1016.4 hPa | 0 mm | - | 954 W/m² | - |
| 1777319720 | 17.22° C | 51% | 1016.4 hPa | 0 mm | - | 953 W/m² | - |
| 1777317017 | 17.22° C | 58% | 1016.6 hPa | 0 mm | - | 948 W/m² | - |
| 1777316458 | 17.22° C | 58% | 1016.7 hPa | 0 mm | - | 956 W/m² | - |
| 1777315818 | 17.22° C | 57% | 1016.6 hPa | 0 mm | - | 757 W/m² | - |
| 1777314919 | 17.22° C | 57% | 1016.4 hPa | 0 mm | - | 903 W/m² | - |
| 1777314318 | 16.67° C | 59% | 1016.4 hPa | 0 mm | - | 963 W/m² | - |
| 1777314018 | 16.67° C | 58% | 1016.4 hPa | 0 mm | - | 958 W/m² | - |
| 1777313418 | 16.67° C | 60% | 1016.3 hPa | 0 mm | - | 887 W/m² | - |
| 1777312519 | 17.22° C | 59% | 1016.2 hPa | 0 mm | - | 821 W/m² | - |
| 1777311019 | 17.22° C | 58% | 1016.1 hPa | 0 mm | - | 749 W/m² | - |
| 1777310419 | 16.67° C | 62% | 1016.1 hPa | 0 mm | - | 723 W/m² | - |
| 1777308920 | 16.11° C | 63% | 1016 hPa | 0 mm | - | 649 W/m² | - |
| 1777308320 | 16.67° C | 61% | 1015.9 hPa | 0 mm | - | 615 W/m² | - |
| 1777308039 | 16.11° C | 61% | 1015.8 hPa | 0 mm | - | 599 W/m² | - |
| 1777306817 | 16.11° C | 61% | 1015.7 hPa | 0 mm | - | 532 W/m² | - |
* Rain latest hour (hover to see other rain measurements)
** Current wind speed in m/s (hover to see current wind gust speed)